Regional Weather Roundup
Issued by NWS Little Rock, AR

Home | Current Version | Previous Version | Text Only | Print | Product List | Glossary On
Versions: 1 2 3 4 5 6 7 8 9 10 11 12 13 14 15 16 17 18 19 20 21 22 23 24 25 26 27 28 29 30 31 32 33 34 35 36 37 38 39 40 41 42 43 44 45 46 47 48 49 50
000
ASUS44 KLZK 071605
RWRLZK

WEATHER ROUNDUP FOR ARKANSAS
NATIONAL WEATHER SERVICE LITTLE ROCK AR
1000 AM CST SUN FEB 07 2016

NOTE: "FAIR" INDICATES FEW OR NO CLOUDS BELOW 12,000 FEET WITH NO
SIGNIFICANT WEATHER AND/OR OBSTRUCTIONS TO VISIBILITY.

ARZ001-003-010-029-071700-
NORTHWEST ARKANSAS

CITY           SKY/WX    TMP DP  RH WIND       PRES   REMARKS
FAYETTEVILLE   CLOUDY    48  33  56 SW13      30.14S
FORT SMITH     SUNNY     44  31  60 SW5       30.18F
HARRISON       MOSUNNY   49  27  42 W12G21    30.10S
BENTONVILLE    CLOUDY   N/A N/A N/A W17G23    30.14S
ROGERS         MOSUNNY   43  33  68 SW14      30.13S
SILOAM SPGS    CLOUDY    45  28  53 SW16      30.15S
HIGHFILL       CLOUDY    44  34  67 SW22G28   30.13R
SPRINGDALE     SUNNY     45  32  61 SW17      30.15F
$$

ARZ004-005-016-071700-
NORTH CENTRAL ARKANSAS

CITY           SKY/WX    TMP DP  RH WIND       PRES   REMARKS
BATESVILLE     SUNNY     52  30  43 SW12      30.16S
FLIPPIN        SUNNY     48  27  43 SW7       30.09F
MTN HOME       SUNNY     45  29  53 SW8       30.09F
$$

ARZ040-041-071700-
WEST CENTRAL ARKANSAS

CITY           SKY/WX    TMP DP  RH WIND       PRES   REMARKS
MENA           SUNNY     48  36  61 W15G21    30.20F
MOUNT IDA      SUNNY     48  30  49 SW3       30.16F
$$

ARZ009-017-025-026-028-071700-
NORTHEAST ARKANSAS

CITY           SKY/WX    TMP DP  RH WIND       PRES   REMARKS
CORNING        FAIR      46  32  57 SW10      30.14F
JONESBORO      SUNNY     45  30  55 SW12      30.17F
NEWPORT        SUNNY     48  32  54 S12       30.18F
WALNUT RIDGE   SUNNY     46  28  49 SW13      30.14F
BLYTHEVILLE    SUNNY     51  30  44 SW17      30.18F
$$

ARZ022-023-033-042-044-071700-
CENTRAL ARKANSAS

CITY           SKY/WX    TMP DP  RH WIND       PRES   REMARKS
LITTLE ROCK    MOSUNNY   49  30  48 SW8       30.22S
N LITTLE ROCK  MOSUNNY   50  32  49 SW9G16    30.22S
JACKSONVILLE   SUNNY     48  30  50 SW6       30.18F
SEARCY         SUNNY     46  28  49 SW7       30.21S
HOT SPRINGS    SUNNY     47  32  56 W8        30.22F
RUSSELLVILLE   SUNNY     41  29  62 VRB3      30.18S
CLINTON        FAIR      39  27  60 CALM      30.16F HAZE
$$

ARZ036-071700-
EAST ARKANSAS

CITY           SKY/WX    TMP DP  RH WIND       PRES   REMARKS
WEST MEMPHIS   SUNNY     49  32  52 SW5       30.20R
$$

ARZ050-053-066-070-073-071700-
SOUTHWEST ARKANSAS

CITY           SKY/WX    TMP DP  RH WIND       PRES   REMARKS
ARKADELPHIA    FAIR      47  37  68 SW12      30.26F
CAMDEN         SUNNY     50  34  53 CALM      30.26R
TEXARKANA      SUNNY     49  35  58 SW8       30.24F
EL DORADO      SUNNY     49  35  58 S7        30.25F
DE QUEEN       SUNNY     42  36  79 CALM      30.25R
$$

ARZ056-057-069-071700-
SOUTHEAST ARKANSAS

CITY           SKY/WX    TMP DP  RH WIND       PRES   REMARKS
PINE BLUFF     SUNNY     49  32  52 SW8       30.24R
STUTTGART      SUNNY     50  34  53 SW10      30.23R
MONTICELLO     SUNNY     51  33  50 W8        30.24F

$$





USA.gov is the U.S. government's official web portal to all federal, state and local government web resources and services.